Terminal Aerodrome Forecast
Issued by NWS

Home | Current Version | Previous Version | Graphics & Text | Print | Product List | Glossary On
Versions: 1 2 3 4 5 6 7 8 9 10 11 12 13 14 15 16 17
000
FTUS42 KMHX 210500
TAFISO
TAF
KISO 210520Z 2106/2206 36007KT P6SM OVC006
      TEMPO 2106/2110 5SM -RA OVC006
     FM211000 33007KT 5SM -RA BR OVC010
     FM211300 33008KT P6SM SCT020 BKN100
     FM211700 33007KT P6SM SCT060 SCT100
      AMD LTD TO CLD VIS AND WIND=

USA.gov is the U.S. government's official web portal to all federal, state and local government web resources and services.